User: anonymous   Login
Location: Abraham Lincoln Continuation High School
(33.9711°N, 117.3662°W)
Time: 19:34:21
(UTC+00:00)
Language:

Meteor 2-6 Rocket - Orbit

View from above orbital plane
View from above orbital plane
View from above satellite
View from above satellite

Ground track
Ground track

The orbit data is extracted from the following two-line orbital elements,

1 11963U 80073B   20332.10853876 -.00000031  00000-0 -24695-4 0  9992
2 11963  81.2753 344.1063 0074744 114.4676 246.4315 14.09720538 67898
Epoch (UTC): 27 November 2020 02:36:17
Eccentricity: 0.0074744
inclination: 81.2753°
perigee height: 806 km
apogee height: 914 km
right ascension of ascending node: 344.1063°
argument of perigee: 114.4676°
revolutions per day: 14.09720538
mean anomaly at epoch: 246.4315°
orbit number at epoch: 6789

The dashed part of the orbit path shows where the satellite is in the earth's shadow,  

DLR